Hourly Data Report for May 30, 2003

SHERBROOKE A
QUEBEC

45°26'00.000" N
71°41'00.000" W
241.40 m
7028124
71610
YSC

Download Data

Hourly Data (May 2003)
Hourly Data Report for May 30, 2003
TIME
LST
Temp Definition
°C
Dew Point Definition
°C
Rel Hum Definition
%
Precip. Amount Definition
mm

Wind Dir Definition
10's deg

Wind Spd Definition
km/h
Visibility Definition
km
Stn Press Definition
kPa
Hmdx Definition


Wind Chill Definition


Weather Definition


00:00 12.8 12.3 97   21 6 15.0 97.02      
01:00 12.7 12.3 97   22 4 15.0 97.00      
02:00 12.7 12.2 97   21 4 12.9 96.97      
03:00 12.6 12.2 97     0 8.0 96.97     Drizzle
04:00 12.5 12.1 97   23 4 11.3 96.99      
05:00 12.6 12.2 97   19 7 9.7 97.04      
06:00 13.0 12.5 97   21 4 12.9 97.06      
07:00 13.5 12.9 96   22 4 9.7 97.11     Fog
08:00 14.2 13.4 95   24 6 9.7 97.12     Fog
09:00 15.6 13.8 89   25 6 19.3 97.12     Mostly Cloudy
10:00 13.5 12.7 95   24 15 9.7 97.15     Rain Showers,Fog
11:00 13.1 12.1 94   28 15 24.1 97.20     Drizzle
12:00 13.6 12.2 91   25 13 24.1 97.21     Cloudy
13:00 13.3 11.8 91   27 17 19.3 97.25     Rain Showers
14:00 12.8 11.5 92   25 15 16.1 97.26     Drizzle
15:00 12.6 11.8 95   27 9 6.4 97.28     Drizzle,Fog
16:00 12.7 11.8 94   26 7 12.9 97.32     Drizzle
17:00 12.8 11.9 94   26 6 8.0 97.36      
18:00 12.1 11.7 97   20 4 2.1 97.38     Drizzle
19:00 11.8 11.3 97   22 11 3.1 97.40      
20:00 11.6 11.1 97   22 6 6.4 97.42      
21:00 11.5 11.0 97   21 6 6.4 97.46      
22:00 11.3 10.8 97   23 6 6.4 97.46      
23:00 11.4 10.7 95   22 6 8.0 97.46      

Notes on Data Quality.

Legend

  • E = Estimated
  • M = Missing
  • NA = Not Available*
  • [empty] = Indicates an unobserved value
Date modified: